Regional Weather Roundup
Issued by NWS

Home | Current Version | Previous Version | Graphics & Text | Print | Product List | Glossary On
Versions: 1 2 3 4 5 6 7 8 9 10 11 12 13 14 15 16 17 18 19 20 21 22 23 24 25 26 27 28 29 30 31 32 33 34 35 36 37 38 39 40 41 42 43 44 45 46 47 48 49 50
233
ASUS43 KMKX 311411
RWRWI

WISCONSIN REGIONAL WEATHER ROUNDUP
NATIONAL WEATHER SERVICE MILWAUKEE/SULLIVAN WI
900 AM CDT TUE MAY 31 2016

NOTE: "FAIR" INDICATES FEW OR NO CLOUDS BELOW 12,000 FEET WITH NO
SIGNIFICANT WEATHER AND/OR OBSTRUCTIONS TO VISIBILITY.

WIZ001-002-006>008-014>016-023>028-311500-
NORTHWEST WISCONSIN

CITY           SKY/WX    TMP DP  RH WIND       PRES   REMARKS
SUPERIOR ARPT  DRIZZLE   44  40  89 NE18G29   29.99F
ASHLAND        CLOUDY    50  45  83 NE8       29.99R
HAYWARD        CLOUDY    60  52  74 SE7       29.95R
SIREN          PTSUNNY   60  54  79 E5        29.90F
CUMBERLAND     CLOUDY    64  55  72 SE10      29.93S
RICE LAKE      CLOUDY    67  56  67 SE13      29.95R
CHETEK         CLOUDY    65  58  78 S12G17    29.95R
LADYSMITH      CLOUDY    65  56  73 E9        29.98R
EAU CLAIRE     CLOUDY    67  58  72 S7        29.94R
MENOMONIE      LGT RAIN  64  62  95 CALM      29.94S
NEW RICHMOND   LGT RAIN  61  61 100 SE8G16    29.92R
OSCEOLA        RAIN      63  63  99 SE13      29.92S
$$

WIZ003>005-009-010-017-018-311500-
NORTH CENTRAL WISCONSIN

CITY           SKY/WX    TMP DP  RH WIND       PRES   REMARKS
MANITOWISH WTR NOT AVBL
ARBOR VITAE    CLOUDY    57  49  74 SE8       30.03S
WOODRUFF       CLOUDY    57  49  74 SE8       30.03S
RHINELANDER    CLOUDY    56  47  71 SE10      30.04S
EAGLE RIVER      N/A     53  43  69 E10       30.05R
LAND O LAKES   CLOUDY    53  43  70 SE12G17   30.06R
PHILLIPS       CLOUDY    58  52  79 SE10      29.99R
TOMAHAWK       CLOUDY    56  49  76 E6        30.03R
MEDFORD        CLOUDY    60  54  80 E5        29.99R
MERRILL        MOSUNNY  N/A N/A N/A E13       30.02F
$$

WIZ029-030-035-036-043>047-311500-
CENTRAL WISCONSIN

CITY           SKY/WX    TMP DP  RH WIND       PRES   REMARKS
WAUSAU         SUNNY     60  50  69 E14       30.00S
MOSINEE        SUNNY     61  54  77 E14       30.02S
MARSHFIELD     PTSUNNY   65  55  70 E14       29.98R
STEVENS POINT  CLOUDY    60  52  73 E16       30.02S
WAUPACA        SUNNY     64  56  73 NE12      30.04R
WAUTOMA        MOSUNNY  N/A N/A N/A E13       30.01R
WISC RAPIDS    CLOUDY    68  55  63 SE10      30.00R
CAMP DOUGLAS   PTSUNNY   72  72 100 SE10      29.96R
$$

WIZ011>013-019>022-031-037>040-048>050-311500-
NORTHEAST WISCONSIN

CITY           SKY/WX    TMP DP  RH WIND       PRES   REMARKS
ANTIGO         CLOUDY    55  48  77 E14       30.05F
SHAWANO        SUNNY     59  50  71 E9        30.07S
OCONTO         CLOUDY    55  50  85 NE6G18    30.07S
STURGEON BAY   NOT AVBL
GREEN BAY      CLOUDY    60  49  66 E9        30.06F
MANITOWOC      CLOUDY    53  49  86 NE7       30.06F
APPLETON       PTSUNNY   61  46  59 E14       30.02F
CLINTONVILLE   SUNNY     59  50  72 E9        30.05F
OSHKOSH        SUNNY     62  55  77 E8        30.02F
$$

WIZ032>034-041-042-053>061-311500-
SOUTHWEST WISCONSIN

CITY           SKY/WX    TMP DP  RH WIND       PRES   REMARKS
LA CROSSE      CLOUDY    71  60  68 S10       29.94R
SPARTA         CLOUDY    70  61  73 CALM      29.96R
VIROQUA        CLOUDY    67  60  78 S9        29.97R
BOSCOBEL       NOT AVBL
PRAIRIE DU CHI CLOUDY    68  60  74 W3        29.96R
PLATTEVILLE    CLOUDY    69  63  81 SE10      29.97S
$$

WIZ056-057-062-063-064-067-068-311500-
SOUTH CENTRAL WISCONSIN

CITY           SKY/WX    TMP DP  RH WIND       PRES   REMARKS
REEDSBURG      SUNNY     72  56  57 SE9       29.97S
BARABOO/DELLS  SUNNY     75  51  42 SE14G20   29.98R
LONE ROCK      PTSUNNY   72  60  66 SE6       29.97R
MINERAL POINT  MOSUNNY   72  61  68 SE12      29.98R
MADISON        MOSUNNY   74  54  49 SE14G22   29.98S
MIDDLETON      MOSUNNY   75  53  46 SE13      29.99S
WATERTOWN      SUNNY     72  55  54 SE13      30.00S
MONROE         MOSUNNY   68  55  64 E8        29.99S
JANESVILLE     PTSUNNY   77  54  44 SE14      29.98F
$$

WIZ051-052-058>065-066-070>072-311500-
SOUTHEAST WISCONSIN

CITY           SKY/WX    TMP DP  RH WIND       PRES   REMARKS
MILWAUKEE      MOSUNNY   62  55  77 NE10      30.04R
WAUKESHA       SUNNY     70  50  49 E13       30.03S
MILWAUKEE/TIMM SUNNY     63  50  63 NE10      30.05S
RACINE         MOSUNNY   69  53  56 E8        30.05R
BURLINGTON     SUNNY     72  52  49 SE13      30.02S
KENOSHA        MOSUNNY   70  54  56 E10       30.03S
FOND DU LAC    SUNNY     67  56  67 E8        30.02S
SHEBOYGAN      CLOUDY    56  50  80 NE16      30.06R
WEST BEND      SUNNY     64  54  68 E10       30.04R
JUNEAU         SUNNY     71  57  61 E9        30.02S
$$

LSZ147-162-311500-
LAKE SUPERIOR

STATION/POSITION TIME  TEMP    WIND        PRES    WAVE
                       AIR SEA DIR/SP/G            HT/PER
                 (UTC) (F)     (DEG/KT/KT) (MB)    (FT/S)
W MID LAKE BUOY  1350   41 38   70/ 19/ 23 1017.2F   3/ 5
DEVILS ISLAND    1300   43      70/ 26/ 30 1016.4F
SAXON HARBOR     1340   59     110/  4/  7 1014.6F
$$

LMZ867-665-643>646-311500-
LAKE MICHIGAN

STATION/POSITION TIME  TEMP    WIND        PRES    WAVE
                       AIR SEA DIR/SP/G            HT/PER
                 (UTC) (F)     (DEG/KT/KT) (MB)    (FT/S)
CHAMBERS ISLAND  1300   52      30/ 13/ 17 1019.3F
N MID LAKE BUOY  1350   47 47   50/ 10/ 12 1019.3F   1/ 3
NORTHPORT PIER   1300   51      70/  7/ 11 1019.6S
SISTER BAY       1320   58     120/ 10/ 14   N/A
ALGOMA LAKESHORE 1302           60/ 15/ 23   N/A
KEWAUNEE LAKESHO 1300   48      30/  9/ 14 1018.2R
SHEBOYGAN LAKESH 1400   48     360/ 11/ 12 1018.3R
PORT WASHINGTON  1300   57      40/  9/ 13 1018.3R
S MID LAKE BUOY  1350   57 55   60/ 10/ 12 1016.8F   0
KENOSHA   LAKESH 1400   58      60/  6/ 10 1016.9R
$$

TC  - TEMPERATURE IN CELSIUS
VSB - VISIBILITY IN STATUTE MILES
WCI - WIND CHILL INDEX
HX  - HEAT INDEX





USA.gov is the U.S. government's official web portal to all federal, state and local government web resources and services.